• In Hungary
  • List of Countries
  • For 7 days
  • Water Temperature
  • Satellite Maps
  • Weather Map
  • News
  • Weather Widgets
  • user-avatar
    Login

    Hourly Weather Goryachka

    Today, 24 May, Thursday

    Time Temperature Precipitation Wind Pressure Humidity
    00:00 +19°C° 0 mm 2 mps 759 mmHg 61%
    01:00 +18°C° 0 mm 2 mps 759 mmHg 62%
    02:00 +19°C° 0 mm 1 mps 759 mmHg 62%
    03:00 +17°C° 0 mm 0 mps 759 mmHg 62%
    04:00 +19°C° 0 mm 1 mps 758 mmHg 63%
    05:00 +20°C° 0 mm 1 mps 758 mmHg 64%
    06:00 +20°C° 0 mm 1 mps 758 mmHg 65%
    07:00 +20°C° 0 mm 2 mps 758 mmHg 64%
    08:00 +21°C° 0 mm 3 mps 757 mmHg 62%
    09:00 +22°C° 0 mm 3 mps 757 mmHg 63%
    10:00 +23°C° 0.2 mm 4 mps 757 mmHg 59%
    11:00 +26°C° 0.2 mm 4 mps 756 mmHg 56%
    12:00 +27°C° 0.2 mm 5 mps 756 mmHg 52%
    13:00 +28°C° 0 mm 5 mps 755 mmHg 49%
    14:00 +29°C° 0 mm 5 mps 755 mmHg 45%
    15:00 +32°C° 0 mm 4 mps 754 mmHg 44%
    16:00 +30°C° 0 mm 4 mps 753 mmHg 48%
    17:00 +30°C° 0 mm 3 mps 753 mmHg 52%
    18:00 +29°C° 0 mm 3 mps 752 mmHg 57%
    19:00 +27°C° 0 mm 4 mps 752 mmHg 59%
    20:00 +25°C° 0 mm 4 mps 752 mmHg 60%
    21:00 +23°C° 0 mm 4 mps 752 mmHg 62%
    22:00 +22°C° 0 mm 5 mps 752 mmHg 65%
    23:00 +21°C° 0 mm 5 mps 751 mmHg 67%

    Tomorrow, 25 May, Friday

    Time Temperature Precipitation Wind Pressure Humidity
    00:00 +21°C° 0 mm 6 mps 751 mmHg 70%
    01:00 +20°C° 0 mm 7 mps 751 mmHg 73%
    02:00 +18°C° 0 mm 8 mps 751 mmHg 76%
    03:00 +18°C° 0 mm 8 mps 751 mmHg 80%
    04:00 +18°C° 0 mm 8 mps 751 mmHg 80%
    05:00 +18°C° 0 mm 7 mps 751 mmHg 80%
    06:00 +18°C° 0 mm 7 mps 751 mmHg 80%
    07:00 +20°C° 0 mm 7 mps 751 mmHg 77%
    08:00 +21°C° 0 mm 7 mps 752 mmHg 74%
    09:00 +21°C° 0 mm 8 mps 752 mmHg 71%
    10:00 +21°C° 0.1 mm 8 mps 752 mmHg 70%
    11:00 +21°C° 0.1 mm 8 mps 753 mmHg 69%
    12:00 +21°C° 0.1 mm 8 mps 753 mmHg 69%
    13:00 +21°C° 0.1 mm 8 mps 753 mmHg 69%
    14:00 +20°C° 0.1 mm 8 mps 754 mmHg 69%
    15:00 +18°C° 0.1 mm 8 mps 754 mmHg 70%
    16:00 +17°C° 0 mm 8 mps 755 mmHg 66%
    17:00 +17°C° 0 mm 8 mps 755 mmHg 63%
    18:00 +16°C° 0 mm 8 mps 756 mmHg 60%
    19:00 +13°C° 0 mm 8 mps 756 mmHg 59%
    20:00 +12°C° 0 mm 8 mps 757 mmHg 58%
    21:00 +10°C° 0 mm 8 mps 758 mmHg 57%
    22:00 +10°C° 0 mm 8 mps 758 mmHg 55%
    23:00 +9°C° 0 mm 7 mps 759 mmHg 53%

    Day after tomorrow, 26 May, Saturday

    Time Temperature Precipitation Wind Pressure Humidity
    00:00 +8°C° 0 mm 7 mps 759 mmHg 51%
    01:00 +8°C° 0 mm 7 mps 760 mmHg 52%
    02:00 +6°C° 0 mm 7 mps 761 mmHg 52%
    03:00 +7°C° 0 mm 6 mps 761 mmHg 53%
    04:00 +6°C° 0 mm 7 mps 762 mmHg 54%
    05:00 +6°C° 0 mm 7 mps 762 mmHg 55%
    06:00 +6°C° 0 mm 8 mps 763 mmHg 56%
    07:00 +7°C° 0 mm 8 mps 763 mmHg 54%
    08:00 +9°C° 0 mm 8 mps 763 mmHg 52%
    09:00 +10°C° 0 mm 8 mps 764 mmHg 49%
    10:00 +11°C° 0 mm 8 mps 764 mmHg 47%
    11:00 +12°C° 0 mm 8 mps 764 mmHg 46%
    12:00 +13°C° 0 mm 8 mps 765 mmHg 44%
    13:00 +14°C° 0 mm 7 mps 765 mmHg 44%
    14:00 +14°C° 0 mm 7 mps 765 mmHg 44%
    15:00 +15°C° 0 mm 7 mps 765 mmHg 43%
    16:00 +14°C° 0 mm 6 mps 765 mmHg 47%
    17:00 +14°C° 0 mm 6 mps 765 mmHg 50%
    18:00 +13°C° 0 mm 5 mps 765 mmHg 53%
    19:00 +12°C° 0 mm 4 mps 765 mmHg 57%
    20:00 +10°C° 0 mm 3 mps 766 mmHg 61%
    21:00 +8°C° 0 mm 2 mps 766 mmHg 65%
    22:00 +8°C° 0 mm 2 mps 767 mmHg 66%
    23:00 +7°C° 0 mm 2 mps 767 mmHg 67%

    27 May, Sunday

    Time Temperature Precipitation Wind Pressure Humidity
    00:00 +7°C° 0 mm 2 mps 767 mmHg 67%
    01:00 +8°C° 0 mm 1 mps 767 mmHg 67%
    02:00 +8°C° 0 mm 1 mps 767 mmHg 67%
    03:00 +7°C° 0 mm 1 mps 767 mmHg 67%
    04:00 +9°C° 0 mm 1 mps 768 mmHg 66%
    05:00 +10°C° 0 mm 1 mps 768 mmHg 65%
    06:00 +10°C° 0 mm 2 mps 768 mmHg 64%
    07:00 +13°C° 0 mm 2 mps 768 mmHg 58%
    08:00 +14°C° 0 mm 2 mps 767 mmHg 53%
    09:00 +16°C° 0 mm 2 mps 767 mmHg 47%
    10:00 +17°C° 0 mm 3 mps 767 mmHg 46%
    11:00 +18°C° 0 mm 3 mps 766 mmHg 44%
    12:00 +19°C° 0 mm 3 mps 766 mmHg 42%
    13:00 +19°C° 0 mm 3 mps 765 mmHg 43%
    14:00 +20°C° 0 mm 3 mps 765 mmHg 43%
    15:00 +20°C° 0 mm 4 mps 764 mmHg 44%
    16:00 +20°C° 0 mm 3 mps 764 mmHg 48%
    17:00 +19°C° 0 mm 3 mps 763 mmHg 53%
    18:00 +19°C° 0 mm 3 mps 763 mmHg 58%
    19:00 +17°C° 0 mm 3 mps 762 mmHg 62%
    20:00 +14°C° 0 mm 3 mps 762 mmHg 66%
    21:00 +13°C° 0 mm 3 mps 762 mmHg 70%
    22:00 +12°C° 0 mm 3 mps 762 mmHg 71%
    23:00 +12°C° 0 mm 3 mps 761 mmHg 73%

    28 May, Monday

    Time Temperature Precipitation Wind Pressure Humidity
    00:00 +11°C° 0 mm 4 mps 761 mmHg 74%
    01:00 +11°C° 0 mm 4 mps 761 mmHg 75%
    02:00 +11°C° 0 mm 4 mps 760 mmHg 75%
    03:00 +10°C° 0 mm 4 mps 760 mmHg 76%
    04:00 +10°C° 0 mm 5 mps 760 mmHg 75%
    05:00 +12°C° 0 mm 5 mps 759 mmHg 74%
    06:00 +13°C° 0 mm 6 mps 759 mmHg 73%
    07:00 +14°C° 0 mm 6 mps 759 mmHg 72%
    08:00 +15°C° 0 mm 5 mps 759 mmHg 72%
    09:00 +16°C° 0 mm 5 mps 759 mmHg 71%
    10:00 +17°C° 0 mm 5 mps 759 mmHg 64%
    11:00 +19°C° 0 mm 5 mps 758 mmHg 58%
    12:00 +20°C° 0 mm 5 mps 758 mmHg 51%
    13:00 +20°C° 0 mm 6 mps 758 mmHg 48%
    14:00 +20°C° 0 mm 6 mps 758 mmHg 45%
    15:00 +20°C° 0 mm 7 mps 758 mmHg 42%
    16:00 +17°C° 0 mm 6 mps 759 mmHg 46%
    17:00 +16°C° 0 mm 6 mps 759 mmHg 51%
    18:00 +15°C° 0 mm 5 mps 759 mmHg 55%
    19:00 +14°C° 0 mm 5 mps 760 mmHg 57%
    20:00 +12°C° 0 mm 4 mps 761 mmHg 60%
    21:00 +10°C° 0 mm 4 mps 761 mmHg 62%
    22:00 +9°C° 0 mm 3 mps 762 mmHg 65%
    23:00 +8°C° 0 mm 3 mps 762 mmHg 68%

    29 May, Tuesday

    Time Temperature Precipitation Wind Pressure Humidity
    00:00 +7°C° 0 mm 2 mps 762 mmHg 71%
    01:00 +7°C° 0 mm 3 mps 763 mmHg 72%
    02:00 +5°C° 0 mm 3 mps 763 mmHg 72%
    03:00 +5°C° 0 mm 3 mps 763 mmHg 73%
    04:00 +7°C° 0 mm 3 mps 763 mmHg 71%
    05:00 +7°C° 0 mm 4 mps 763 mmHg 68%
    06:00 +8°C° 0 mm 4 mps 764 mmHg 65%
    07:00 +10°C° 0 mm 5 mps 764 mmHg 58%
    08:00 +12°C° 0 mm 5 mps 763 mmHg 51%
    09:00 +14°C° 0 mm 5 mps 763 mmHg 44%
    10:00 +15°C° 0 mm 5 mps 763 mmHg 46%
    11:00 +15°C° 0 mm 6 mps 763 mmHg 48%
    12:00 +16°C° 0 mm 6 mps 762 mmHg 50%
    13:00 +17°C° 0 mm 7 mps 762 mmHg 51%
    14:00 +18°C° 0 mm 7 mps 761 mmHg 51%
    15:00 +20°C° 0 mm 7 mps 760 mmHg 51%
    16:00 +19°C° 0 mm 6 mps 760 mmHg 55%
    17:00 +19°C° 0 mm 6 mps 759 mmHg 59%
    18:00 +19°C° 0 mm 5 mps 759 mmHg 63%
    19:00 +17°C° 0 mm 5 mps 758 mmHg 66%
    20:00 +16°C° 0 mm 5 mps 758 mmHg 68%
    21:00 +15°C° 0 mm 5 mps 758 mmHg 71%
    22:00 +14°C° 0 mm 6 mps 757 mmHg 71%
    23:00 +14°C° 0 mm 6 mps 757 mmHg 72%
    Show more